FLOCK 2K-40 (42865 NORAD) Tracking and Keplerian Element Data

This shows tracking and keplerian element data for the satellite.

Feedback or suggestion? Click here.




ElementValue
Catalog42865
NameFLOCK 2K-40
Epoch Orbit3280
Epoch Day45.5142463
Epoch Year2018
RAAN308.3125
Inclination96.9931
Eccentricity0.0010281
Argument of Perigee187.8412
Mean Anonmoly172.2674
Mean Motion15.35672812
Decay Rate7.701E-05
L11 42865U 17042AS 18045.51424630 .00007701 00000-0 22381-3 0 9996
L22 42865 96.9931 308.3125 0010281 187.8412 172.2674 15.35672812 32801

Live tracking and technical data element details for FLOCK 2K-40 (NORAD 42865). FLOCK 2K-40 can be tracked NOW for your location showing map with azimuth and elevation plus other details from your city location.

Track the satellite on the map from your city or location and see movement details for azimuth, elevation, latitude, longitude, range, height, and movement on the map or in text.







IsCatalogInMostPopularTable: catalog: 42865, numindb: 156
Update: records affected: 1



GetName: 42865 FLOCK 2K-40

Hit Count: updated at: Tue, 18 Dec 2018 20:53:26 GMT